Time,TemperatureF,DewpointF,PressureIn,WindDirection,WindDirectionDegrees,WindSpeedMPH,WindSpeedGustMPH,Humidity,HourlyPrecipIn,Conditions,Clouds,dailyrainin,SoftwareType,DateUTC
2013-01-14 00:02:00,69.2,63.3,30.18,East,90,1.8,2.4,82,0.00,,,0.00,JAVA,2013-01-14 05:02:00,
2013-01-14 00:03:00,69.2,63.3,30.18,East,90,1.8,2.4,82,0.00,,,0.00,JAVA,2013-01-14 05:03:00,
2013-01-14 00:04:00,69.2,63.3,30.18,SSE,157,1.9,2.4,82,0.00,,,0.00,JAVA,2013-01-14 05:04:00,
2013-01-14 00:09:00,69.4,63.4,30.18,ESE,112,2.0,3.4,83,0.00,,,0.00,JAVA,2013-01-14 05:09:00,
2013-01-14 00:14:00,69.5,63.4,30.18,SSW,202,2.0,3.1,83,0.00,,,0.00,JAVA,2013-01-14 05:14:00,
2013-01-14 00:19:00,69.6,63.6,30.18,ESE,112,2.3,3.6,84,0.00,,,0.00,JAVA,2013-01-14 05:19:00,
2013-01-14 00:24:00,69.6,63.7,30.18,SE,135,1.8,2.7,84,0.00,,,0.00,JAVA,2013-01-14 05:24:00,
2013-01-14 00:29:00,69.7,63.9,30.19,SSE,157,1.8,3.1,84,0.00,,,0.00,JAVA,2013-01-14 05:29:00,
2013-01-14 00:35:00,69.6,64.1,30.18,ESE,112,1.4,2.5,84,0.00,,,0.00,JAVA,2013-01-14 05:35:00,
2013-01-14 00:40:00,69.6,64.3,30.19,SE,135,1.9,2.7,84,0.00,,,0.00,JAVA,2013-01-14 05:40:00,
2013-01-14 00:45:00,69.6,64.4,30.19,SE,135,0.8,1.6,83,0.00,,,0.00,JAVA,2013-01-14 05:45:00,
2013-01-14 00:50:00,69.5,64.5,30.19,East,90,1.2,2.0,83,0.00,,,0.00,JAVA,2013-01-14 05:50:00,
2013-01-14 00:55:00,69.4,64.5,30.19,East,90,1.2,2.0,83,0.00,,,0.00,JAVA,2013-01-14 05:55:00,
2013-01-14 01:00:00,69.4,64.4,30.19,NE,45,1.3,2.2,83,0.00,,,0.00,JAVA,2013-01-14 06:00:00,
2013-01-14 01:06:00,69.2,64.3,30.19,ESE,112,1.2,2.1,83,0.00,,,0.00,JAVA,2013-01-14 06:06:00,
2013-01-14 01:11:00,69.1,64.2,30.19,SE,135,1.6,2.7,83,0.00,,,0.00,JAVA,2013-01-14 06:11:00,
2013-01-14 01:16:00,69.1,64.1,30.19,ENE,67,1.6,2.4,83,0.00,,,0.00,JAVA,2013-01-14 06:16:00,
2013-01-14 01:21:00,69.2,64.1,30.19,SE,135,1.8,2.7,83,0.00,,,0.00,JAVA,2013-01-14 06:21:00,
2013-01-14 01:26:00,69.4,64.0,30.19,ENE,67,1.3,2.2,84,0.00,,,0.00,JAVA,2013-01-14 06:26:00,
2013-01-14 01:32:00,69.4,64.0,30.19,East,90,1.8,3.2,84,0.00,,,0.00,JAVA,2013-01-14 06:32:00,
2013-01-14 01:37:00,69.4,64.1,30.19,East,90,1.4,2.4,84,0.00,,,0.00,JAVA,2013-01-14 06:37:00,
2013-01-14 01:43:00,69.2,64.1,30.19,East,90,1.3,2.0,84,0.00,,,0.00,JAVA,2013-01-14 06:43:00,
2013-01-14 01:48:00,69.1,64.2,30.19,East,90,1.1,2.1,84,0.00,,,0.00,JAVA,2013-01-14 06:48:00,
2013-01-14 01:53:00,69.0,64.3,30.19,East,90,1.0,1.6,85,0.00,,,0.00,JAVA,2013-01-14 06:53:00,
2013-01-14 01:58:00,68.9,64.3,30.19,SE,135,0.9,1.4,85,0.00,,,0.00,JAVA,2013-01-14 06:58:00,
2013-01-14 02:03:00,68.8,64.4,30.19,ESE,112,1.1,1.7,85,0.00,,,0.00,JAVA,2013-01-14 07:03:00,
2013-01-14 02:09:00,68.7,64.4,30.19,SE,135,1.2,1.7,85,0.00,,,0.00,JAVA,2013-01-14 07:09:00,
2013-01-14 02:14:00,68.6,64.3,30.19,East,90,1.4,2.0,85,0.00,,,0.00,JAVA,2013-01-14 07:14:00,
2013-01-14 02:19:00,68.6,64.3,30.19,East,90,1.4,2.4,85,0.00,,,0.00,JAVA,2013-01-14 07:19:00,
2013-01-14 02:24:00,68.6,64.3,30.19,East,90,1.0,2.0,86,0.00,,,0.00,JAVA,2013-01-14 07:24:00,
2013-01-14 02:29:00,68.4,64.2,30.19,East,90,1.6,2.2,86,0.00,,,0.00,JAVA,2013-01-14 07:29:00,
2013-01-14 02:34:00,68.3,64.2,30.19,East,90,1.0,1.6,86,0.00,,,0.00,JAVA,2013-01-14 07:34:00,
2013-01-14 02:40:00,68.2,64.2,30.19,ESE,112,0.8,2.1,86,0.00,,,0.00,JAVA,2013-01-14 07:40:00,
2013-01-14 02:45:00,68.0,64.1,30.19,East,90,0.3,0.8,86,0.00,,,0.00,JAVA,2013-01-14 07:45:00,
2013-01-14 02:50:00,67.7,64.1,30.19,East,90,0.1,0.5,86,0.00,,,0.00,JAVA,2013-01-14 07:50:00,
2013-01-14 02:55:00,67.2,64.0,30.18,ENE,67,0.0,0.0,86,0.00,,,0.00,JAVA,2013-01-14 07:55:00,
2013-01-14 03:00:00,66.7,63.8,30.19,ENE,67,0.0,0.0,86,0.00,,,0.00,JAVA,2013-01-14 08:00:00,
2013-01-14 03:05:00,66.3,63.6,30.19,SSE,157,0.0,0.0,86,0.00,,,0.00,JAVA,2013-01-14 08:05:00,
2013-01-14 03:11:00,66.2,63.3,30.18,ENE,67,0.0,0.0,86,0.00,,,0.00,JAVA,2013-01-14 08:11:00,
2013-01-14 03:16:00,66.0,63.0,30.18,ENE,67,0.0,0.0,86,0.00,,,0.00,JAVA,2013-01-14 08:16:00,
2013-01-14 03:21:00,65.6,62.8,30.19,ENE,67,0.0,0.0,86,0.00,,,0.00,JAVA,2013-01-14 08:21:00,
2013-01-14 03:26:00,65.4,62.4,30.18,ENE,67,0.0,0.0,86,0.00,,,0.00,JAVA,2013-01-14 08:26:00,
2013-01-14 03:31:00,65.2,62.1,30.18,ENE,67,0.0,0.0,86,0.00,,,0.00,JAVA,2013-01-14 08:31:00,
2013-01-14 03:36:00,65.0,61.9,30.18,ENE,67,0.0,0.0,86,0.00,,,0.00,JAVA,2013-01-14 08:36:00,
2013-01-14 03:41:00,64.9,61.6,30.19,ENE,67,0.0,0.0,87,0.00,,,0.00,JAVA,2013-01-14 08:41:00,
2013-01-14 03:46:00,64.9,61.5,30.18,ENE,67,0.0,0.0,87,0.00,,,0.00,JAVA,2013-01-14 08:46:00,
2013-01-14 03:51:00,64.6,61.3,30.18,ENE,67,0.0,0.0,87,0.00,,,0.00,JAVA,2013-01-14 08:51:00,
2013-01-14 03:56:00,64.5,61.2,30.18,ENE,67,0.0,0.0,87,0.00,,,0.00,JAVA,2013-01-14 08:56:00,
2013-01-14 04:02:00,64.3,61.0,30.18,ENE,67,0.0,0.0,88,0.00,,,0.00,JAVA,2013-01-14 09:02:00,
2013-01-14 04:08:00,64.2,60.9,30.19,ENE,67,0.0,0.0,88,0.00,,,0.00,JAVA,2013-01-14 09:08:00,
2013-01-14 04:13:00,63.8,60.9,30.18,ENE,67,0.0,0.0,88,0.00,,,0.00,JAVA,2013-01-14 09:13:00,
2013-01-14 04:18:00,63.6,60.7,30.19,ENE,67,0.0,0.0,88,0.00,,,0.00,JAVA,2013-01-14 09:18:00,
2013-01-14 04:24:00,63.4,60.6,30.18,ENE,67,0.0,0.0,89,0.00,,,0.00,JAVA,2013-01-14 09:24:00,
2013-01-14 04:29:00,63.2,60.5,30.18,ENE,67,0.0,0.0,89,0.00,,,0.00,JAVA,2013-01-14 09:29:00,
2013-01-14 04:34:00,63.1,60.4,30.19,ENE,67,0.0,0.0,89,0.00,,,0.00,JAVA,2013-01-14 09:34:00,
2013-01-14 04:40:00,62.8,60.2,30.18,ENE,67,0.0,0.0,89,0.00,,,0.00,JAVA,2013-01-14 09:40:00,
2013-01-14 04:45:00,62.5,60.0,30.18,ENE,67,0.0,0.0,89,0.00,,,0.00,JAVA,2013-01-14 09:45:00,
2013-01-14 04:50:00,62.5,59.9,30.19,ENE,67,0.0,0.0,89,0.00,,,0.00,JAVA,2013-01-14 09:50:00,
2013-01-14 04:55:00,62.5,59.7,30.18,ENE,67,0.0,0.0,89,0.00,,,0.00,JAVA,2013-01-14 09:55:00,
2013-01-14 05:00:00,62.4,59.6,30.18,ENE,67,0.0,0.0,89,0.00,,,0.00,JAVA,2013-01-14 10:00:00,
2013-01-14 05:06:00,62.6,59.5,30.19,ENE,67,0.0,0.0,89,0.00,,,0.00,JAVA,2013-01-14 10:06:00,
2013-01-14 05:11:00,62.8,59.5,30.19,ENE,67,0.0,0.0,90,0.00,,,0.00,JAVA,2013-01-14 10:11:00,
2013-01-14 05:16:00,62.9,59.5,30.19,ENE,67,0.0,0.0,90,0.00,,,0.00,JAVA,2013-01-14 10:16:00,
2013-01-14 05:21:00,62.7,59.5,30.19,ENE,67,0.0,0.0,90,0.00,,,0.00,JAVA,2013-01-14 10:21:00,
2013-01-14 05:26:00,62.6,59.5,30.18,ENE,67,0.0,0.0,90,0.00,,,0.00,JAVA,2013-01-14 10:26:00,
2013-01-14 05:31:00,62.7,59.5,30.18,East,90,0.1,0.5,90,0.00,,,0.00,JAVA,2013-01-14 10:31:00,
2013-01-14 05:36:00,62.9,59.6,30.18,East,90,0.3,1.1,90,0.00,,,0.00,JAVA,2013-01-14 10:36:00,
2013-01-14 05:41:00,63.2,59.7,30.18,East,90,0.0,0.1,90,0.00,,,0.00,JAVA,2013-01-14 10:41:00,
2013-01-14 05:46:00,63.4,59.9,30.18,East,90,0.0,0.4,91,0.00,,,0.00,JAVA,2013-01-14 10:46:00,
2013-01-14 05:51:00,63.5,60.0,30.18,East,90,0.0,0.0,91,0.00,,,0.00,JAVA,2013-01-14 10:51:00,
2013-01-14 05:57:00,63.4,60.1,30.18,East,90,0.0,0.0,91,0.00,,,0.00,JAVA,2013-01-14 10:57:00,
2013-01-14 06:02:00,63.3,60.3,30.18,East,90,0.0,0.0,91,0.00,,,0.00,JAVA,2013-01-14 11:02:00,
2013-01-14 06:07:00,63.5,60.4,30.18,East,90,0.0,0.3,91,0.00,,,0.00,JAVA,2013-01-14 11:07:00,
2013-01-14 06:12:00,63.7,60.6,30.19,East,90,0.0,0.1,91,0.00,,,0.00,JAVA,2013-01-14 11:12:00,
2013-01-14 06:17:00,63.8,60.7,30.19,East,90,0.0,0.0,91,0.00,,,0.00,JAVA,2013-01-14 11:17:00,
2013-01-14 06:22:00,63.7,60.9,30.18,East,90,0.0,0.0,91,0.00,,,0.00,JAVA,2013-01-14 11:22:00,
2013-01-14 06:27:00,63.5,61.0,30.19,East,90,0.0,0.0,91,0.00,,,0.00,JAVA,2013-01-14 11:27:00,
2013-01-14 06:33:00,63.4,61.0,30.18,ENE,67,0.0,0.0,91,0.00,,,0.00,JAVA,2013-01-14 11:33:00,
2013-01-14 06:38:00,63.6,61.0,30.18,East,90,0.1,0.6,92,0.00,,,0.00,JAVA,2013-01-14 11:38:00,
2013-01-14 06:43:00,63.7,61.1,30.18,ENE,67,0.0,0.5,92,0.00,,,0.00,JAVA,2013-01-14 11:43:00,
2013-01-14 06:48:00,64.0,61.2,30.18,East,90,0.3,1.1,92,0.00,,,0.00,JAVA,2013-01-14 11:48:00,
2013-01-14 06:53:00,64.2,61.3,30.18,SE,135,0.1,0.6,92,0.00,,,0.00,JAVA,2013-01-14 11:53:00,
2013-01-14 06:58:00,64.4,61.3,30.19,East,90,0.0,0.4,92,0.00,,,0.00,JAVA,2013-01-14 11:58:00,
2013-01-14 07:04:00,64.4,61.5,30.19,East,90,0.0,0.0,92,0.00,,,0.00,JAVA,2013-01-14 12:04:00,
2013-01-14 07:09:00,64.3,61.6,30.19,East,90,0.0,0.0,93,0.00,,,0.00,JAVA,2013-01-14 12:09:00,
2013-01-14 07:14:00,64.1,61.7,30.19,NE,45,0.0,0.0,93,0.00,,,0.00,JAVA,2013-01-14 12:14:00,
2013-01-14 07:19:00,64.0,61.8,30.19,NE,45,0.0,0.0,93,0.00,,,0.00,JAVA,2013-01-14 12:19:00,
2013-01-14 07:24:00,63.8,61.9,30.19,NE,45,0.0,0.0,93,0.00,,,0.00,JAVA,2013-01-14 12:24:00,
2013-01-14 07:30:00,63.8,61.9,30.19,ESE,112,0.0,0.0,93,0.00,,,0.00,JAVA,2013-01-14 12:30:00,
2013-01-14 07:35:00,64.0,62.0,30.20,ESE,112,0.0,0.0,93,0.00,,,0.00,JAVA,2013-01-14 12:35:00,
2013-01-14 07:40:00,64.2,62.0,30.20,East,90,0.1,0.5,93,0.00,,,0.00,JAVA,2013-01-14 12:40:00,
2013-01-14 07:45:00,64.9,62.0,30.20,ESE,112,0.1,0.2,93,0.00,,,0.00,JAVA,2013-01-14 12:45:00,
2013-01-14 07:50:00,65.6,62.1,30.20,SE,135,0.2,0.6,94,0.00,,,0.00,JAVA,2013-01-14 12:50:00,
2013-01-14 07:55:00,66.3,62.3,30.20,ESE,112,0.2,0.7,94,0.00,,,0.00,JAVA,2013-01-14 12:55:00,
2013-01-14 08:00:00,67.0,62.7,30.20,ENE,67,0.3,1.0,94,0.00,,,0.00,JAVA,2013-01-14 13:00:00,
2013-01-14 08:05:00,67.6,63.1,30.20,ESE,112,1.1,3.7,95,0.00,,,0.00,JAVA,2013-01-14 13:05:00,
2013-01-14 08:11:00,68.0,63.7,30.20,SE,135,1.6,2.6,95,0.00,,,0.00,JAVA,2013-01-14 13:11:00,
2013-01-14 08:16:00,68.7,64.3,30.20,East,90,1.6,3.2,95,0.00,,,0.00,JAVA,2013-01-14 13:16:00,
2013-01-14 08:21:00,69.0,64.9,30.20,ESE,112,1.6,2.5,95,0.00,,,0.00,JAVA,2013-01-14 13:21:00,
2013-01-14 08:26:00,69.5,65.6,30.20,SE,135,2.1,3.6,95,0.00,,,0.00,JAVA,2013-01-14 13:26:00,
2013-01-14 08:31:00,70.1,66.3,30.21,SE,135,2.2,3.9,95,0.00,,,0.00,JAVA,2013-01-14 13:31:00,
2013-01-14 08:37:00,70.7,66.9,30.21,ESE,112,2.8,4.2,94,0.00,,,0.00,JAVA,2013-01-14 13:37:00,
2013-01-14 08:42:00,71.2,67.4,30.21,ESE,112,2.5,3.6,93,0.00,,,0.00,JAVA,2013-01-14 13:42:00,
2013-01-14 08:47:00,71.6,67.8,30.21,SE,135,2.2,3.1,92,0.00,,,0.00,JAVA,2013-01-14 13:47:00,
2013-01-14 08:52:00,71.9,68.1,30.21,East,90,2.2,3.9,90,0.00,,,0.00,JAVA,2013-01-14 13:52:00,
2013-01-14 08:57:00,72.3,68.4,30.21,SE,135,3.0,5.1,88,0.00,,,0.00,JAVA,2013-01-14 13:57:00,
2013-01-14 09:02:00,72.9,68.6,30.21,East,90,3.3,3.9,87,0.00,,,0.00,JAVA,2013-01-14 14:02:00,
2013-01-14 09:07:00,73.4,68.7,30.21,ESE,112,2.6,4.0,85,0.00,,,0.00,JAVA,2013-01-14 14:07:00,
2013-01-14 09:12:00,73.9,68.7,30.21,East,90,2.8,4.4,83,0.00,,,0.00,JAVA,2013-01-14 14:12:00,
2013-01-14 09:17:00,74.2,68.7,30.22,ESE,112,3.2,4.9,81,0.00,,,0.00,JAVA,2013-01-14 14:17:00,
2013-01-14 09:22:00,74.6,68.6,30.22,East,90,3.4,6.5,80,0.00,,,0.00,JAVA,2013-01-14 14:22:00,
2013-01-14 09:28:00,75.0,68.5,30.23,SE,135,2.7,4.1,78,0.00,,,0.00,JAVA,2013-01-14 14:28:00,
2013-01-14 09:33:00,75.0,68.3,30.23,SE,135,2.9,4.6,77,0.00,,,0.00,JAVA,2013-01-14 14:33:00,
2013-01-14 09:38:00,75.4,68.2,30.23,ESE,112,2.9,4.9,76,0.00,,,0.00,JAVA,2013-01-14 14:38:00,
2013-01-14 09:43:00,75.9,68.0,30.24,East,90,3.5,6.1,75,0.00,,,0.00,JAVA,2013-01-14 14:43:00,
2013-01-14 09:48:00,75.8,67.9,30.23,South,180,3.6,5.4,74,0.00,,,0.00,JAVA,2013-01-14 14:48:00,
2013-01-14 09:53:00,76.1,67.6,30.23,ESE,112,3.1,5.4,73,0.00,,,0.00,JAVA,2013-01-14 14:53:00,
2013-01-14 09:59:00,76.1,67.4,30.23,SE,135,4.0,7.8,72,0.00,,,0.00,JAVA,2013-01-14 14:59:00,
2013-01-14 10:04:00,76.2,67.2,30.23,SE,135,3.4,5.3,71,0.00,,,0.00,JAVA,2013-01-14 15:04:00,
2013-01-14 10:09:00,76.0,67.0,30.23,SE,135,4.7,6.3,71,0.00,,,0.00,JAVA,2013-01-14 15:09:00,
2013-01-14 10:14:00,75.5,66.8,30.23,SE,135,3.8,6.0,70,0.00,,,0.00,JAVA,2013-01-14 15:14:00,
2013-01-14 10:19:00,75.3,66.5,30.23,East,90,3.3,5.1,70,0.00,,,0.00,JAVA,2013-01-14 15:19:00,
2013-01-14 10:24:00,75.4,66.2,30.23,ESE,112,2.1,3.6,70,0.00,,,0.00,JAVA,2013-01-14 15:24:00,
2013-01-14 10:29:00,75.3,66.0,30.23,ESE,112,3.2,4.8,70,0.00,,,0.00,JAVA,2013-01-14 15:29:00,
2013-01-14 10:34:00,75.0,65.7,30.23,East,90,2.6,4.9,70,0.00,,,0.00,JAVA,2013-01-14 15:34:00,
2013-01-14 10:39:00,75.0,65.5,30.23,SE,135,1.6,3.4,71,0.00,,,0.00,JAVA,2013-01-14 15:39:00,
2013-01-14 10:44:00,75.1,65.4,30.23,East,90,3.5,5.2,71,0.00,,,0.00,JAVA,2013-01-14 15:44:00,
2013-01-14 10:49:00,74.9,65.3,30.23,NE,45,3.3,5.5,72,0.00,,,0.00,JAVA,2013-01-14 15:49:00,
2013-01-14 10:54:00,75.0,65.2,30.23,East,90,3.4,5.3,72,0.00,,,0.00,JAVA,2013-01-14 15:54:00,
2013-01-14 11:00:00,74.9,65.2,30.23,ESE,112,3.5,4.8,72,0.00,,,0.00,JAVA,2013-01-14 16:00:00,
2013-01-14 11:05:00,74.5,65.3,30.22,East,90,3.3,4.6,73,0.00,,,0.00,JAVA,2013-01-14 16:05:00,
2013-01-14 11:10:00,74.6,65.3,30.22,SE,135,3.4,4.8,73,0.00,,,0.00,JAVA,2013-01-14 16:10:00,
2013-01-14 11:15:00,74.9,65.4,30.22,East,90,2.8,5.3,73,0.00,,,0.00,JAVA,2013-01-14 16:15:00,
2013-01-14 11:20:00,75.9,65.6,30.21,SE,135,3.0,5.7,74,0.00,,,0.00,JAVA,2013-01-14 16:20:00,
2013-01-14 11:25:00,76.3,65.8,30.20,East,90,4.3,5.3,74,0.00,,,0.00,JAVA,2013-01-14 16:25:00,
2013-01-14 11:30:00,76.6,66.1,30.20,SE,135,3.7,5.7,73,0.00,,,0.00,JAVA,2013-01-14 16:30:00,
2013-01-14 11:36:00,76.9,66.4,30.20,NE,45,4.0,5.8,73,0.00,,,0.00,JAVA,2013-01-14 16:36:00,
2013-01-14 11:41:00,76.8,66.6,30.21,SE,135,4.3,7.3,72,0.00,,,0.00,JAVA,2013-01-14 16:41:00,
2013-01-14 11:46:00,77.0,66.8,30.21,SSE,157,4.0,6.6,72,0.00,,,0.00,JAVA,2013-01-14 16:46:00,
2013-01-14 11:51:00,76.9,67.1,30.21,East,90,4.1,6.6,71,0.00,,,0.00,JAVA,2013-01-14 16:51:00,
2013-01-14 11:56:00,77.1,67.2,30.21,East,90,3.5,6.2,70,0.00,,,0.00,JAVA,2013-01-14 16:56:00,
2013-01-14 12:01:00,77.3,67.3,30.21,ESE,112,4.1,5.6,69,0.00,,,0.00,JAVA,2013-01-14 17:01:00,
2013-01-14 12:06:00,77.1,67.2,30.20,SE,135,4.6,7.2,69,0.00,,,0.00,JAVA,2013-01-14 17:06:00,
2013-01-14 12:11:00,76.9,67.1,30.20,ESE,112,4.6,7.1,68,0.00,,,0.00,JAVA,2013-01-14 17:11:00,
2013-01-14 12:16:00,76.9,66.9,30.20,SE,135,4.3,6.2,68,0.00,,,0.00,JAVA,2013-01-14 17:16:00,
2013-01-14 12:22:00,77.0,66.6,30.19,ENE,67,4.1,6.0,68,0.00,,,0.00,JAVA,2013-01-14 17:22:00,
2013-01-14 12:27:00,76.9,66.4,30.19,ESE,112,5.3,7.4,68,0.00,,,0.00,JAVA,2013-01-14 17:27:00,
2013-01-14 12:32:00,77.1,66.3,30.19,East,90,3.3,6.5,68,0.00,,,0.00,JAVA,2013-01-14 17:32:00,
2013-01-14 12:37:00,77.2,66.2,30.18,SSE,157,3.8,5.5,68,0.00,,,0.00,JAVA,2013-01-14 17:37:00,
2013-01-14 12:42:00,77.3,66.0,30.18,SSE,157,4.7,7.4,68,0.00,,,0.00,JAVA,2013-01-14 17:42:00,
2013-01-14 12:47:00,77.6,66.0,30.18,SE,135,2.9,5.1,69,0.00,,,0.00,JAVA,2013-01-14 17:47:00,
2013-01-14 12:52:00,77.6,66.1,30.18,SE,135,4.1,5.4,69,0.00,,,0.00,JAVA,2013-01-14 17:52:00,
2013-01-14 12:57:00,77.0,66.2,30.18,ESE,112,5.9,8.7,69,0.00,,,0.00,JAVA,2013-01-14 17:57:00,
2013-01-14 13:02:00,76.7,66.3,30.17,East,90,5.1,8.6,69,0.00,,,0.00,JAVA,2013-01-14 18:02:00,
2013-01-14 13:07:00,76.9,66.3,30.18,East,90,3.7,6.8,69,0.00,,,0.00,JAVA,2013-01-14 18:07:00,
2013-01-14 13:13:00,76.7,66.3,30.17,ESE,112,5.5,8.6,69,0.00,,,0.00,JAVA,2013-01-14 18:13:00,
2013-01-14 13:18:00,76.8,66.4,30.17,ESE,112,3.6,5.8,69,0.00,,,0.00,JAVA,2013-01-14 18:18:00,
2013-01-14 13:23:00,76.9,66.4,30.17,SE,135,3.8,5.8,69,0.00,,,0.00,JAVA,2013-01-14 18:23:00,
2013-01-14 13:28:00,77.2,66.4,30.18,East,90,3.0,6.5,69,0.00,,,0.00,JAVA,2013-01-14 18:28:00,
2013-01-14 13:33:00,77.6,66.4,30.17,SE,135,3.5,6.0,69,0.00,,,0.00,JAVA,2013-01-14 18:33:00,
2013-01-14 13:38:00,77.3,66.4,30.17,ESE,112,4.0,6.2,69,0.00,,,0.00,JAVA,2013-01-14 18:38:00,
2013-01-14 13:43:00,77.6,66.4,30.17,ESE,112,3.2,5.3,69,0.00,,,0.00,JAVA,2013-01-14 18:43:00,
2013-01-14 13:48:00,77.0,66.5,30.17,ESE,112,5.2,7.9,69,0.00,,,0.00,JAVA,2013-01-14 18:48:00,
2013-01-14 13:53:00,77.0,66.5,30.18,East,90,3.9,6.0,69,0.00,,,0.00,JAVA,2013-01-14 18:53:00,
2013-01-14 13:58:00,77.1,66.6,30.18,South,180,3.4,5.2,69,0.00,,,0.00,JAVA,2013-01-14 18:58:00,
2013-01-14 14:04:00,76.8,66.6,30.17,ESE,112,5.0,6.4,69,0.00,,,0.00,JAVA,2013-01-14 19:04:00,
2013-01-14 14:09:00,76.6,66.5,30.17,ESE,112,4.7,7.0,69,0.00,,,0.00,JAVA,2013-01-14 19:09:00,
2013-01-14 14:14:00,76.4,66.4,30.17,SE,135,4.5,6.1,69,0.00,,,0.00,JAVA,2013-01-14 19:14:00,
2013-01-14 14:19:00,76.6,66.2,30.18,ESE,112,4.0,6.0,69,0.00,,,0.00,JAVA,2013-01-14 19:19:00,
2013-01-14 14:24:00,76.8,66.1,30.17,SE,135,3.4,4.6,69,0.00,,,0.00,JAVA,2013-01-14 19:24:00,
2013-01-14 14:29:00,76.6,66.0,30.18,ESE,112,4.9,7.0,69,0.00,,,0.00,JAVA,2013-01-14 19:29:00,
2013-01-14 14:34:00,76.3,66.0,30.18,SE,135,4.8,6.6,69,0.00,,,0.00,JAVA,2013-01-14 19:34:00,
2013-01-14 14:39:00,76.3,65.9,30.18,SE,135,4.0,6.8,69,0.00,,,0.00,JAVA,2013-01-14 19:39:00,
2013-01-14 14:44:00,76.4,65.8,30.18,SSE,157,3.4,5.2,69,0.00,,,0.00,JAVA,2013-01-14 19:44:00,
2013-01-14 14:49:00,76.7,65.9,30.17,ESE,112,3.6,6.1,70,0.00,,,0.00,JAVA,2013-01-14 19:49:00,
2013-01-14 14:55:00,76.6,65.9,30.18,SE,135,4.8,6.3,70,0.00,,,0.00,JAVA,2013-01-14 19:55:00,
2013-01-14 15:00:00,76.4,66.0,30.18,East,90,3.9,6.4,70,0.00,,,0.00,JAVA,2013-01-14 20:00:00,
2013-01-14 15:05:00,76.3,66.0,30.18,SE,135,4.5,6.7,70,0.00,,,0.00,JAVA,2013-01-14 20:05:00,
2013-01-14 15:10:00,76.6,66.0,30.18,East,90,3.4,4.8,70,0.00,,,0.00,JAVA,2013-01-14 20:10:00,
2013-01-14 15:15:00,76.6,66.0,30.18,East,90,4.2,6.6,70,0.00,,,0.00,JAVA,2013-01-14 20:15:00,
2013-01-14 15:20:00,76.1,66.1,30.18,East,90,5.0,7.0,70,0.00,,,0.00,JAVA,2013-01-14 20:20:00,
2013-01-14 15:26:00,75.9,66.1,30.18,SSE,157,5.3,7.5,70,0.00,,,0.00,JAVA,2013-01-14 20:26:00,
2013-01-14 15:31:00,76.0,66.0,30.18,ESE,112,4.3,5.8,70,0.00,,,0.00,JAVA,2013-01-14 20:31:00,
2013-01-14 15:36:00,76.2,66.0,30.18,ESE,112,2.8,4.6,70,0.00,,,0.00,JAVA,2013-01-14 20:36:00,
2013-01-14 15:41:00,76.4,66.0,30.18,South,180,3.1,4.8,71,0.00,,,0.00,JAVA,2013-01-14 20:41:00,
2013-01-14 15:46:00,76.7,66.1,30.18,ESE,112,2.9,4.5,71,0.00,,,0.00,JAVA,2013-01-14 20:46:00,
2013-01-14 15:51:00,76.4,66.2,30.18,ESE,112,3.8,5.2,71,0.00,,,0.00,JAVA,2013-01-14 20:51:00,
2013-01-14 15:56:00,76.3,66.2,30.19,SSE,157,2.8,4.9,71,0.00,,,0.00,JAVA,2013-01-14 20:56:00,
2013-01-14 16:01:00,76.3,66.2,30.18,SE,135,3.4,5.6,71,0.00,,,0.00,JAVA,2013-01-14 21:01:00,
2013-01-14 16:07:00,76.3,66.3,30.19,ESE,112,2.8,4.2,71,0.00,,,0.00,JAVA,2013-01-14 21:07:00,
2013-01-14 16:12:00,76.2,66.3,30.19,East,90,2.7,4.2,71,0.00,,,0.00,JAVA,2013-01-14 21:12:00,
2013-01-14 16:17:00,76.0,66.4,30.19,East,90,2.9,5.3,71,0.00,,,0.00,JAVA,2013-01-14 21:17:00,
2013-01-14 16:22:00,75.8,66.3,30.19,ESE,112,3.3,5.2,71,0.00,,,0.00,JAVA,2013-01-14 21:22:00,
2013-01-14 16:27:00,75.7,66.3,30.19,East,90,2.6,4.2,71,0.00,,,0.00,JAVA,2013-01-14 21:27:00,
2013-01-14 16:32:00,75.5,66.2,30.19,ESE,112,2.4,4.3,71,0.00,,,0.00,JAVA,2013-01-14 21:32:00,
2013-01-14 16:37:00,75.3,66.1,30.19,East,90,4.2,5.7,72,0.00,,,0.00,JAVA,2013-01-14 21:37:00,
2013-01-14 16:42:00,75.1,66.0,30.19,East,90,4.3,5.6,72,0.00,,,0.00,JAVA,2013-01-14 21:42:00,
2013-01-14 16:47:00,74.9,65.9,30.19,ENE,67,4.5,7.1,73,0.00,,,0.00,JAVA,2013-01-14 21:47:00,
2013-01-14 16:52:00,74.6,65.9,30.19,SE,135,3.6,5.3,73,0.00,,,0.00,JAVA,2013-01-14 21:52:00,
2013-01-14 16:57:00,74.5,65.8,30.19,East,90,3.7,4.8,74,0.00,,,0.00,JAVA,2013-01-14 21:57:00,
2013-01-14 17:02:00,74.4,65.8,30.19,ESE,112,3.4,5.1,74,0.00,,,0.00,JAVA,2013-01-14 22:02:00,
2013-01-14 17:07:00,74.1,65.8,30.20,SE,135,3.6,5.6,74,0.00,,,0.00,JAVA,2013-01-14 22:07:00,
2013-01-14 17:12:00,74.0,65.8,30.19,East,90,3.6,5.1,75,0.00,,,0.00,JAVA,2013-01-14 22:12:00,
2013-01-14 17:17:00,73.6,65.8,30.20,SE,135,4.0,5.7,75,0.00,,,0.00,JAVA,2013-01-14 22:17:00,
2013-01-14 17:22:00,73.4,65.7,30.20,East,90,3.9,6.9,76,0.00,,,0.00,JAVA,2013-01-14 22:22:00,
2013-01-14 17:27:00,73.3,65.7,30.20,East,90,3.3,5.0,76,0.00,,,0.00,JAVA,2013-01-14 22:27:00,
2013-01-14 17:33:00,73.1,65.6,30.20,SE,135,3.5,4.7,76,0.00,,,0.00,JAVA,2013-01-14 22:33:00,
2013-01-14 17:38:00,72.9,65.6,30.20,East,90,3.3,4.8,77,0.00,,,0.00,JAVA,2013-01-14 22:38:00,
2013-01-14 17:43:00,72.8,65.6,30.20,East,90,4.0,5.3,78,0.00,,,0.00,JAVA,2013-01-14 22:43:00,
2013-01-14 17:48:00,72.7,65.5,30.20,SE,135,3.1,4.2,78,0.00,,,0.00,JAVA,2013-01-14 22:48:00,
2013-01-14 17:54:00,72.6,65.5,30.21,ESE,112,3.4,4.5,78,0.00,,,0.00,JAVA,2013-01-14 22:54:00,
2013-01-14 17:59:00,72.5,65.5,30.20,NE,45,3.9,5.2,79,0.00,,,0.00,JAVA,2013-01-14 22:59:00,
2013-01-14 18:04:00,72.5,65.6,30.21,ESE,112,3.0,4.2,79,0.00,,,0.00,JAVA,2013-01-14 23:04:00,
2013-01-14 18:09:00,72.4,65.6,30.21,SE,135,3.3,5.0,80,0.00,,,0.00,JAVA,2013-01-14 23:09:00,
2013-01-14 18:14:00,72.3,65.7,30.21,East,90,3.5,5.3,80,0.00,,,0.00,JAVA,2013-01-14 23:14:00,
2013-01-14 18:19:00,72.3,65.8,30.21,ESE,112,3.5,5.6,81,0.00,,,0.00,JAVA,2013-01-14 23:19:00,
2013-01-14 18:24:00,72.3,65.9,30.21,SE,135,3.5,4.4,81,0.00,,,0.00,JAVA,2013-01-14 23:24:00,
2013-01-14 18:29:00,72.3,66.0,30.22,ESE,112,3.6,4.7,81,0.00,,,0.00,JAVA,2013-01-14 23:29:00,
2013-01-14 18:34:00,72.3,66.1,30.22,SE,135,3.5,5.1,81,0.00,,,0.00,JAVA,2013-01-14 23:34:00,
2013-01-14 18:39:00,72.3,66.1,30.22,SE,135,3.6,4.6,81,0.00,,,0.00,JAVA,2013-01-14 23:39:00,
2013-01-14 18:44:00,72.3,66.2,30.22,SE,135,3.2,4.5,81,0.00,,,0.00,JAVA,2013-01-14 23:44:00,
2013-01-14 18:49:00,72.3,66.3,30.22,East,90,3.4,5.2,81,0.00,,,0.00,JAVA,2013-01-14 23:49:00,
2013-01-14 18:55:00,72.2,66.3,30.22,East,90,4.0,6.2,82,0.00,,,0.00,JAVA,2013-01-14 23:55:00,
2013-01-14 19:00:00,72.2,66.3,30.21,East,90,3.7,6.4,82,0.00,,,0.00,JAVA,2013-01-15 00:00:00,
2013-01-14 19:05:00,72.2,66.4,30.21,SE,135,3.7,5.6,82,0.00,,,0.00,JAVA,2013-01-15 00:05:00,
2013-01-14 19:10:00,72.2,66.4,30.22,ESE,112,4.2,6.1,82,0.00,,,0.00,JAVA,2013-01-15 00:10:00,
2013-01-14 19:15:00,72.2,66.4,30.22,ENE,67,3.4,5.7,82,0.00,,,0.00,JAVA,2013-01-15 00:15:00,
2013-01-14 19:20:00,72.2,66.4,30.21,SE,135,3.2,5.2,82,0.00,,,0.00,JAVA,2013-01-15 00:20:00,
2013-01-14 19:25:00,72.1,66.4,30.21,SE,135,4.0,5.9,82,0.00,,,0.00,JAVA,2013-01-15 00:25:00,
2013-01-14 19:30:00,71.9,66.4,30.22,SE,135,3.8,5.7,82,0.00,,,0.00,JAVA,2013-01-15 00:30:00,
2013-01-14 19:35:00,72.1,66.4,30.21,East,90,4.1,6.3,82,0.00,,,0.00,JAVA,2013-01-15 00:35:00,
2013-01-14 19:40:00,71.9,66.4,30.21,SE,135,3.0,4.8,82,0.00,,,0.00,JAVA,2013-01-15 00:40:00,
2013-01-14 19:45:00,71.8,66.4,30.21,SE,135,3.0,5.3,82,0.00,,,0.00,JAVA,2013-01-15 00:45:00,
2013-01-14 19:51:00,71.9,66.4,30.21,ESE,112,3.4,5.0,82,0.00,,,0.00,JAVA,2013-01-15 00:51:00,
2013-01-14 19:56:00,71.9,66.4,30.21,East,90,3.6,6.1,82,0.00,,,0.00,JAVA,2013-01-15 00:56:00,
2013-01-14 20:01:00,71.8,66.4,30.21,SSE,157,3.4,4.2,82,0.00,,,0.00,JAVA,2013-01-15 01:01:00,
2013-01-14 20:06:00,71.8,66.4,30.21,East,90,3.7,5.6,82,0.00,,,0.00,JAVA,2013-01-15 01:06:00,
2013-01-14 20:11:00,71.8,66.3,30.21,ESE,112,3.1,5.1,82,0.00,,,0.00,JAVA,2013-01-15 01:11:00,
2013-01-14 20:16:00,71.8,66.3,30.21,East,90,2.6,4.5,82,0.00,,,0.00,JAVA,2013-01-15 01:16:00,
2013-01-14 20:21:00,71.8,66.3,30.21,East,90,3.3,4.8,82,0.00,,,0.00,JAVA,2013-01-15 01:21:00,
2013-01-14 20:26:00,71.9,66.3,30.21,East,90,2.9,4.1,82,0.00,,,0.00,JAVA,2013-01-15 01:26:00,
2013-01-14 20:31:00,71.9,66.2,30.21,ENE,67,3.3,4.8,82,0.00,,,0.00,JAVA,2013-01-15 01:31:00,
2013-01-14 20:36:00,71.9,66.2,30.20,ESE,112,2.9,3.9,81,0.00,,,0.00,JAVA,2013-01-15 01:36:00,
2013-01-14 20:41:00,71.9,66.2,30.21,SE,135,3.5,4.4,81,0.00,,,0.00,JAVA,2013-01-15 01:41:00,
2013-01-14 20:46:00,71.8,66.1,30.20,ESE,112,2.7,4.3,81,0.00,,,0.00,JAVA,2013-01-15 01:46:00,
2013-01-14 20:51:00,71.9,66.1,30.20,SE,135,2.6,4.1,81,0.00,,,0.00,JAVA,2013-01-15 01:51:00,
2013-01-14 20:56:00,71.8,66.0,30.20,SE,135,2.9,3.5,81,0.00,,,0.00,JAVA,2013-01-15 01:56:00,
2013-01-14 21:01:00,71.9,65.9,30.20,East,90,2.9,4.8,80,0.00,,,0.00,JAVA,2013-01-15 02:01:00,
2013-01-14 21:07:00,71.8,65.9,30.20,ESE,112,2.5,4.6,80,0.00,,,0.00,JAVA,2013-01-15 02:07:00,
2013-01-14 21:12:00,71.7,65.8,30.20,SE,135,2.5,4.7,80,0.00,,,0.00,JAVA,2013-01-15 02:12:00,
2013-01-14 21:17:00,71.7,65.7,30.20,SE,135,2.6,4.6,80,0.00,,,0.00,JAVA,2013-01-15 02:17:00,
2013-01-14 21:22:00,71.7,65.6,30.20,SE,135,2.7,3.7,80,0.00,,,0.00,JAVA,2013-01-15 02:22:00,
2013-01-14 21:27:00,71.7,65.6,30.21,East,90,2.2,4.5,80,0.00,,,0.00,JAVA,2013-01-15 02:27:00,
2013-01-14 21:32:00,71.7,65.5,30.21,ESE,112,1.8,4.2,80,0.00,,,0.00,JAVA,2013-01-15 02:32:00,
2013-01-14 21:37:00,71.6,65.4,30.20,ESE,112,2.1,4.5,80,0.00,,,0.00,JAVA,2013-01-15 02:37:00,
2013-01-14 21:42:00,71.6,65.4,30.20,ESE,112,2.3,3.9,80,0.00,,,0.00,JAVA,2013-01-15 02:42:00,
2013-01-14 21:47:00,71.6,65.3,30.20,SE,135,2.8,4.3,80,0.00,,,0.00,JAVA,2013-01-15 02:47:00,
2013-01-14 21:52:00,71.6,65.3,30.20,ESE,112,2.3,3.5,80,0.00,,,0.00,JAVA,2013-01-15 02:52:00,
2013-01-14 21:57:00,71.5,65.3,30.20,SE,135,2.5,3.2,80,0.00,,,0.00,JAVA,2013-01-15 02:57:00,
2013-01-14 22:02:00,71.4,65.3,30.20,SE,135,2.6,3.6,81,0.00,,,0.00,JAVA,2013-01-15 03:02:00,
2013-01-14 22:07:00,71.5,65.3,30.20,East,90,2.7,4.2,81,0.00,,,0.00,JAVA,2013-01-15 03:07:00,
2013-01-14 22:12:00,71.5,65.3,30.21,ESE,112,2.4,3.7,81,0.00,,,0.00,JAVA,2013-01-15 03:12:00,
2013-01-14 22:17:00,71.5,65.3,30.21,ESE,112,2.4,3.7,81,0.00,,,0.00,JAVA,2013-01-15 03:17:00,
2013-01-14 22:22:00,71.5,65.4,30.20,SE,135,2.1,3.8,81,0.00,,,0.00,JAVA,2013-01-15 03:22:00,
2013-01-14 22:27:00,71.5,65.4,30.20,East,90,2.5,3.7,81,0.00,,,0.00,JAVA,2013-01-15 03:27:00,
2013-01-14 22:32:00,71.4,65.4,30.20,SE,135,1.8,2.6,80,0.00,,,0.00,JAVA,2013-01-15 03:32:00,
2013-01-14 22:38:00,71.3,65.4,30.20,East,90,1.9,3.4,80,0.00,,,0.00,JAVA,2013-01-15 03:38:00,
2013-01-14 22:43:00,71.3,65.3,30.20,SE,135,1.9,2.5,81,0.00,,,0.00,JAVA,2013-01-15 03:43:00,
2013-01-14 22:48:00,71.3,65.3,30.20,SE,135,2.3,4.1,81,0.00,,,0.00,JAVA,2013-01-15 03:48:00,
2013-01-14 22:54:00,71.4,65.3,30.20,ESE,112,2.7,4.4,81,0.00,,,0.00,JAVA,2013-01-15 03:54:00,
2013-01-14 22:59:00,71.4,65.3,30.20,East,90,2.5,3.4,81,0.00,,,0.00,JAVA,2013-01-15 03:59:00,
2013-01-14 23:04:00,71.3,65.3,30.20,SE,135,2.4,4.2,82,0.00,,,0.00,JAVA,2013-01-15 04:04:00,
2013-01-14 23:09:00,71.3,65.4,30.19,SSE,157,2.2,4.0,82,0.00,,,0.00,JAVA,2013-01-15 04:09:00,
2013-01-14 23:14:00,71.3,65.4,30.19,ESE,112,2.4,4.0,82,0.00,,,0.00,JAVA,2013-01-15 04:14:00,
2013-01-14 23:19:00,71.3,65.4,30.20,ESE,112,1.9,3.4,82,0.00,,,0.00,JAVA,2013-01-15 04:19:00,
2013-01-14 23:24:00,71.3,65.5,30.20,East,90,2.3,4.0,82,0.00,,,0.00,JAVA,2013-01-15 04:24:00,
2013-01-14 23:29:00,71.3,65.5,30.20,East,90,1.6,2.7,82,0.00,,,0.00,JAVA,2013-01-15 04:29:00,
2013-01-14 23:34:00,71.2,65.5,30.20,SE,135,1.3,2.3,81,0.00,,,0.00,JAVA,2013-01-15 04:34:00,
2013-01-14 23:40:00,71.0,65.5,30.20,East,90,1.6,2.4,81,0.00,,,0.00,JAVA,2013-01-15 04:40:00,
2013-01-14 23:45:00,70.9,65.5,30.20,SE,135,1.7,3.1,81,0.00,,,0.00,JAVA,2013-01-15 04:45:00,
2013-01-14 23:50:00,70.9,65.4,30.19,East,90,1.5,2.4,82,0.00,,,0.00,JAVA,2013-01-15 04:50:00,
2013-01-14 23:55:00,71.0,65.4,30.19,SE,135,1.6,3.0,82,0.00,,,0.00,JAVA,2013-01-15 04:55:00,